Location: Mahannah Oil Field
(37.4664°N, 96.6003°W)
Time: 15:20:02
(UTC+00:00)

Vanguard 2 - All Passes

Search period start: 23 January 2021 00:00
Search period end: 02 February 2021 00:00
Orbit: 553 x 2937 km, 32.9° (Epoch: 23 January)

Date Brightness Start Highest point End Pass type
(mag) Time Alt. Az. Time Alt. Az. Time Alt. Az.
23 Jan - 00:16:49 10° WSW 00:20:51 48° S 00:26:23 10° E visible
23 Jan - 02:24:04 10° W 02:29:06 49° S 02:37:05 10° ESE visible
23 Jan - 04:32:07 10° WSW 04:38:10 29° SSW 04:47:10 10° SSE visible
23 Jan - 06:45:14 10° SW 06:48:07 11° SSW 06:51:19 10° SSW night (unlit)
23 Jan - 22:27:33 10° SW 22:30:52 25° SSE 22:34:27 10° ESE daylight
24 Jan - 00:34:30 10° WSW 00:38:35 51° S 00:44:17 10° ESE visible
24 Jan - 02:41:53 10° W 02:46:55 41° SSW 02:54:43 10° SE visible
24 Jan - 04:50:33 10° WSW 04:56:04 22° SSW 05:03:44 10° SSE night (unlit)
24 Jan - 22:44:55 10° SW 22:48:31 33° SSE 22:52:28 10° E daylight
25 Jan - 00:52:12 10° WSW 00:56:20 50° S 01:02:09 10° ESE visible
25 Jan - 02:59:48 10° W 03:04:43 33° SSW 03:12:09 10° SE visible
25 Jan - 05:09:36 10° WSW 05:13:59 15° SSW 05:19:30 10° S night (unlit)
25 Jan - 20:55:52 10° SSW 20:58:32 16° SSE 21:00:59 10° ESE daylight
25 Jan - 23:02:28 10° WSW 23:06:12 40° S 23:10:23 10° E daylight
26 Jan - 01:09:58 10° W 01:14:06 45° S 01:19:56 10° ESE visible
26 Jan - 03:17:53 10° WSW 03:22:34 26° SSW 03:29:17 10° SE visible
26 Jan - 21:12:44 10° SW 21:16:12 22° SSE 21:19:20 10° ESE daylight
26 Jan - 23:20:08 10° WSW 23:23:54 45° S 23:28:14 10° ESE daylight
27 Jan - 01:27:46 10° W 01:31:52 38° S 01:37:35 10° SE visible
27 Jan - 03:36:18 10° WSW 03:40:26 19° SSW 03:45:56 10° SSE visible
27 Jan - 19:24:41 10° S 19:25:52 11° SSE 19:26:58 10° SE daylight
27 Jan - 21:30:01 10° SW 21:33:54 30° SSE 21:37:22 10° ESE daylight
27 Jan - 23:37:51 10° WSW 23:41:38 46° S 23:46:03 10° ESE daylight
28 Jan - 01:45:40 10° WSW 01:49:37 30° SSW 01:55:03 10° SE visible
28 Jan - 03:55:28 10° SW 03:58:18 13° SSW 04:01:39 10° S visible
28 Jan - 19:40:13 10° SSW 19:43:38 16° SSE 19:46:29 10° ESE daylight
28 Jan - 21:47:32 10° WSW 21:51:36 37° S 21:55:16 10° ESE daylight
28 Jan - 23:55:37 10° WSW 23:59:22 42° S 00:03:47 10° ESE daylight
29 Jan - 02:03:45 10° WSW 02:07:25 23° SSW 02:12:13 10° SSE visible
29 Jan - 19:57:00 10° SW 20:01:23 23° SSE 20:04:51 10° ESE daylight
29 Jan - 22:05:12 10° WSW 22:09:19 43° S 22:13:05 10° ESE daylight
30 Jan - 00:13:26 10° WSW 00:17:05 36° S 00:21:26 10° ESE visible
30 Jan - 02:22:11 10° WSW 02:25:12 16° SSW 02:28:54 10° SSE visible
30 Jan - 18:07:37 10° S 18:10:40 13° SSE 18:13:16 10° SE daylight
30 Jan - 20:14:13 10° SW 20:19:08 30° SSE 20:22:54 10° ESE daylight
30 Jan - 22:22:56 10° WSW 22:27:02 45° S 22:30:51 10° ESE daylight
31 Jan - 00:31:21 10° WSW 00:34:48 28° SSW 00:38:55 10° SE visible
31 Jan - 02:41:55 10° SW 02:43:00 11° SSW 02:44:08 10° S visible
31 Jan - 18:23:30 10° SSW 18:28:31 19° SSE 18:32:20 10° ESE daylight
31 Jan - 20:31:43 10° WSW 20:36:54 38° S 20:40:46 10° ESE daylight
31 Jan - 22:40:44 10° WSW 22:44:45 43° S 22:48:34 10° ESE daylight
01 Feb - 00:49:24 10° WSW 00:52:31 21° SSW 00:56:07 10° SSE visible
01 Feb - 18:40:15 10° SW 18:46:21 26° SSE 18:50:40 10° ESE daylight
01 Feb - 20:49:23 10° WSW 20:54:39 44° S 20:58:35 10° ESE daylight
01 Feb - 22:58:34 10° W 23:02:27 38° S 23:06:12 10° ESE daylight
